owner,sensor,date,latitude,longitude,vertical_datum,wind_speed,wind_to_direction,wind_speed_of_gust,qcFlag 
DISL,ioos:station:DISL:MHPA:1,2017-12-01T00:30:00Z,30.6671,-87.9365,8.5,5.56,176.9,-9999.0,'1111122,1111122,1111122' 
DISL,ioos:station:DISL:MHPA:1,2017-12-01T01:30:00Z,30.6671,-87.9365,8.5,3.5,195.8,-9999.0,'1111122,1111122,1111122' 
DISL,ioos:station:DISL:MHPA:1,2017-12-01T02:30:00Z,30.6671,-87.9365,8.5,2.16,176.9,-9999.0,'1111122,1111122,1111122' 
DISL,ioos:station:DISL:MHPA:1,2017-12-01T03:30:00Z,30.6671,-87.9365,8.5,0.72,167.7,-9999.0,'1111122,1111122,1111122' 
DISL,ioos:station:DISL:MHPA:1,2017-12-01T04:30:00Z,30.6671,-87.9365,8.5,,,-9999.0,'1111122,1111122,1111122' 
DISL,ioos:station:DISL:MHPA:1,2017-12-01T05:30:00Z,30.6671,-87.9365,8.5,2.08,308.2,-9999.0,'1111122,1111122,1111122' 
DISL,ioos:station:DISL:MHPA:1,2017-12-01T06:30:00Z,30.6671,-87.9365,8.5,1.63,311.9,-9999.0,'1111122,1111122,1111122' 
DISL,ioos:station:DISL:MHPA:1,2017-12-01T07:30:00Z,30.6671,-87.9365,8.5,1.95,321.5,-9999.0,'1111122,1111122,1111122' 
DISL,ioos:station:DISL:MHPA:1,2017-12-01T08:30:00Z,30.6671,-87.9365,8.5,2.29,330.1,-9999.0,'1111122,1111122,1111122' 
DISL,ioos:station:DISL:MHPA:1,2017-12-01T09:30:00Z,30.6671,-87.9365,8.5,2.81,333.4,-9999.0,'1111122,1111122,1111122' 
DISL,ioos:station:DISL:MHPA:1,2017-12-01T10:30:00Z,30.6671,-87.9365,8.5,0.66,349.5,-9999.0,'1111122,1111122,1111122' 
DISL,ioos:station:DISL:MHPA:1,2017-12-01T11:30:00Z,30.6671,-87.9365,8.5,1.4,329.5,-9999.0,'1111122,1111122,1111122' 
DISL,ioos:station:DISL:MHPA:1,2017-12-01T12:30:00Z,30.6671,-87.9365,8.5,1.12,325.1,-9999.0,'1111122,1111122,1111122' 
DISL,ioos:station:DISL:MHPA:1,2017-12-01T13:30:00Z,30.6671,-87.9365,8.5,1.43,350.0,-9999.0,'1111122,1111122,1111122' 
DISL,ioos:station:DISL:MHPA:1,2017-12-01T14:30:00Z,30.6671,-87.9365,8.5,0.59,342.0,-9999.0,'1111122,1111122,1111122' 
DISL,ioos:station:DISL:MHPA:1,2017-12-01T15:30:00Z,30.6671,-87.9365,8.5,0.9,40.81,-9999.0,'1111122,1111122,1111122' 
DISL,ioos:station:DISL:MHPA:1,2017-12-01T16:30:00Z,30.6671,-87.9365,8.5,1.55,301.9,-9999.0,'1111122,1111122,1111122' 
DISL,ioos:station:DISL:MHPA:1,2017-12-01T17:30:00Z,30.6671,-87.9365,8.5,2.2,303.0,-9999.0,'1111122,1111122,1111122' 
DISL,ioos:station:DISL:MHPA:1,2017-12-01T18:30:00Z,30.6671,-87.9365,8.5,2.08,316.2,-9999.0,'1111122,1111122,1111122' 
DISL,ioos:station:DISL:MHPA:1,2017-12-01T19:30:00Z,30.6671,-87.9365,8.5,4.21,312.4,-9999.0,'1111122,1111122,1111122' 
DISL,ioos:station:DISL:MHPA:1,2017-12-01T20:30:00Z,30.6671,-87.9365,8.5,4.25,310.4,-9999.0,'1111122,1111122,1111122' 
DISL,ioos:station:DISL:MHPA:1,2017-12-01T21:30:00Z,30.6671,-87.9365,8.5,3.01,325.9,-9999.0,'1111122,1111122,1111122' 
DISL,ioos:station:DISL:MHPA:1,2017-12-01T22:30:00Z,30.6671,-87.9365,8.5,3.79,337.8,-9999.0,'1111122,1111122,1111122' 
DISL,ioos:station:DISL:MHPA:1,2017-12-01T23:30:00Z,30.6671,-87.9365,8.5,2.61,0.462,-9999.0,'1111122,1111122,1111122' 
DISL,ioos:station:DISL:MHPA:1,2017-12-02T00:30:00Z,30.6671,-87.9365,8.5,3.08,335.9,-9999.0,'1111122,1111122,1111122' 
DISL,ioos:station:DISL:MHPA:1,2017-12-02T01:30:00Z,30.6671,-87.9365,8.5,2.65,330.0,-9999.0,'1111122,1111122,1111122' 
DISL,ioos:station:DISL:MHPA:1,2017-12-02T02:30:00Z,30.6671,-87.9365,8.5,2.01,336.4,-9999.0,'1111122,1111122,1111122' 
DISL,ioos:station:DISL:MHPA:1,2017-12-02T03:30:00Z,30.6671,-87.9365,8.5,1.76,343.8,-9999.0,'1111122,1111122,1111122' 
DISL,ioos:station:DISL:MHPA:1,2017-12-02T04:30:00Z,30.6671,-87.9365,8.5,1.34,353.0,-9999.0,'1111122,1111122,1111122' 
DISL,ioos:station:DISL:MHPA:1,2017-12-02T05:30:00Z,30.6671,-87.9365,8.5,1.33,28.97,-9999.0,'1111122,1111122,1111122' 
DISL,ioos:station:DISL:MHPA:1,2017-12-02T06:30:00Z,30.6671,-87.9365,8.5,0.24,24.1,-9999.0,'1111122,1111122,1111122' 
DISL,ioos:station:DISL:MHPA:1,2017-12-02T07:30:00Z,30.6671,-87.9365,8.5,0.52,10.52,-9999.0,'1111122,1111122,1111122' 
DISL,ioos:station:DISL:MHPA:1,2017-12-02T08:30:00Z,30.6671,-87.9365,8.5,0.72,11.86,-9999.0,'1111122,1111122,1111122' 
DISL,ioos:station:DISL:MHPA:1,2017-12-02T09:30:00Z,30.6671,-87.9365,8.5,1.21,326.4,-9999.0,'1111122,1111122,1111122' 
DISL,ioos:station:DISL:MHPA:1,2017-12-02T10:30:00Z,30.6671,-87.9365,8.5,1.03,9.78,-9999.0,'1111122,1111122,1111122' 
DISL,ioos:station:DISL:MHPA:1,2017-12-02T11:30:00Z,30.6671,-87.9365,8.5,0.89,343.8,-9999.0,'1111122,1111122,1111122' 
DISL,ioos:station:DISL:MHPA:1,2017-12-02T12:30:00Z,30.6671,-87.9365,8.5,0.8,353.1,-9999.0,'1111122,1111122,1111122' 
DISL,ioos:station:DISL:MHPA:1,2017-12-02T13:30:00Z,30.6671,-87.9365,8.5,1.1,340.0,-9999.0,'1111122,1111122,1111122' 
DISL,ioos:station:DISL:MHPA:1,2017-12-02T14:30:00Z,30.6671,-87.9365,8.5,1.02,343.2,-9999.0,'1111122,1111122,1111122' 
DISL,ioos:station:DISL:MHPA:1,2017-12-02T15:30:00Z,30.6671,-87.9365,8.5,2.43,337.8,-9999.0,'1111122,1111122,1111122' 
DISL,ioos:station:DISL:MHPA:1,2017-12-02T16:30:00Z,30.6671,-87.9365,8.5,2.23,322.7,-9999.0,'1111122,1111122,1111122' 
DISL,ioos:station:DISL:MHPA:1,2017-12-02T17:30:00Z,30.6671,-87.9365,8.5,2.55,343.5,-9999.0,'1111122,1111122,1111122' 
DISL,ioos:station:DISL:MHPA:1,2017-12-02T18:30:00Z,30.6671,-87.9365,8.5,2.7,308.5,-9999.0,'1111122,1111122,1111122' 
DISL,ioos:station:DISL:MHPA:1,2017-12-02T19:30:00Z,30.6671,-87.9365,8.5,2.16,323.3,-9999.0,'1111122,1111122,1111122' 
DISL,ioos:station:DISL:MHPA:1,2017-12-02T20:30:00Z,30.6671,-87.9365,8.5,2.15,257.3,-9999.0,'1111122,1111122,1111122' 
DISL,ioos:station:DISL:MHPA:1,2017-12-02T21:30:00Z,30.6671,-87.9365,8.5,2.24,292.3,-9999.0,'1111122,1111122,1111122' 
DISL,ioos:station:DISL:MHPA:1,2017-12-02T22:30:00Z,30.6671,-87.9365,8.5,1.72,293.6,-9999.0,'1111122,1111122,1111122' 
DISL,ioos:station:DISL:MHPA:1,2017-12-02T23:30:00Z,30.6671,-87.9365,8.5,1.72,23.37,-9999.0,'1111122,1111122,1111122' 
DISL,ioos:station:DISL:MHPA:1,2017-12-03T00:30:00Z,30.6671,-87.9365,8.5,1.38,9.15,-9999.0,'1111122,1111122,1111122' 
DISL,ioos:station:DISL:MHPA:1,2017-12-03T01:30:00Z,30.6671,-87.9365,8.5,1.27,7.429,-9999.0,'1111122,1111122,1111122' 
DISL,ioos:station:DISL:MHPA:1,2017-12-03T02:30:00Z,30.6671,-87.9365,8.5,1.28,357.9,-9999.0,'1111122,1111122,1111122' 
DISL,ioos:station:DISL:MHPA:1,2017-12-03T03:30:00Z,30.6671,-87.9365,8.5,1.26,0.896,-9999.0,'1111122,1111122,1111122' 
DISL,ioos:station:DISL:MHPA:1,2017-12-03T04:30:00Z,30.6671,-87.9365,8.5,0.36,12.77,-9999.0,'1111122,1111122,1111122' 
DISL,ioos:station:DISL:MHPA:1,2017-12-03T05:30:00Z,30.6671,-87.9365,8.5,0.89,356.8,-9999.0,'1111122,1111122,1111122' 
DISL,ioos:station:DISL:MHPA:1,2017-12-03T06:30:00Z,30.6671,-87.9365,8.5,1.58,359.0,-9999.0,'1111122,1111122,1111122' 
DISL,ioos:station:DISL:MHPA:1,2017-12-03T07:30:00Z,30.6671,-87.9365,8.5,0.55,358.8,-9999.0,'1111122,1111122,1111122' 
DISL,ioos:station:DISL:MHPA:1,2017-12-03T08:30:00Z,30.6671,-87.9365,8.5,0.82,348.1,-9999.0,'1111122,1111122,1111122' 
DISL,ioos:station:DISL:MHPA:1,2017-12-03T09:30:00Z,30.6671,-87.9365,8.5,0.76,352.5,-9999.0,'1111122,1111122,1111122' 
DISL,ioos:station:DISL:MHPA:1,2017-12-03T10:30:00Z,30.6671,-87.9365,8.5,1.7,358.0,-9999.0,'1111122,1111122,1111122' 
DISL,ioos:station:DISL:MHPA:1,2017-12-03T11:30:00Z,30.6671,-87.9365,8.5,1.62,356.2,-9999.0,'1111122,1111122,1111122' 
DISL,ioos:station:DISL:MHPA:1,2017-12-03T12:30:00Z,30.6671,-87.9365,8.5,1.4,355.1,-9999.0,'1111122,1111122,1111122' 
DISL,ioos:station:DISL:MHPA:1,2017-12-03T13:30:00Z,30.6671,-87.9365,8.5,1.04,339.0,-9999.0,'1111122,1111122,1111122' 
DISL,ioos:station:DISL:MHPA:1,2017-12-03T14:30:00Z,30.6671,-87.9365,8.5,1.97,358.8,-9999.0,'1111122,1111122,1111122' 
DISL,ioos:station:DISL:MHPA:1,2017-12-03T15:30:00Z,30.6671,-87.9365,8.5,1.45,314.8,-9999.0,'1111122,1111122,1111122' 
DISL,ioos:station:DISL:MHPA:1,2017-12-03T16:30:00Z,30.6671,-87.9365,8.5,2.3,306.7,-9999.0,'1111122,1111122,1111122' 
DISL,ioos:station:DISL:MHPA:1,2017-12-03T17:30:00Z,30.6671,-87.9365,8.5,1.57,303.2,-9999.0,'1111122,1111122,1111122' 
DISL,ioos:station:DISL:MHPA:1,2017-12-03T18:30:00Z,30.6671,-87.9365,8.5,2.58,351.4,-9999.0,'1111122,1111122,1111122' 
DISL,ioos:station:DISL:MHPA:1,2017-12-03T19:30:00Z,30.6671,-87.9365,8.5,1.75,4.492,-9999.0,'1111122,1111122,1111122' 
DISL,ioos:station:DISL:MHPA:1,2017-12-03T20:30:00Z,30.6671,-87.9365,8.5,1.68,16.74,-9999.0,'1111122,1111122,1111122' 
DISL,ioos:station:DISL:MHPA:1,2017-12-03T21:30:00Z,30.6671,-87.9365,8.5,1.42,340.7,-9999.0,'1111122,1111122,1111122' 
DISL,ioos:station:DISL:MHPA:1,2017-12-03T22:30:00Z,30.6671,-87.9365,8.5,0.51,32.0,-9999.0,'1111122,1111122,1111122' 
DISL,ioos:station:DISL:MHPA:1,2017-12-03T23:30:00Z,30.6671,-87.9365,8.5,0.89,25.43,-9999.0,'1111122,1111122,1111122' 
DISL,ioos:station:DISL:MHPA:1,2017-12-04T00:30:00Z,30.6671,-87.9365,8.5,1.32,31.26,-9999.0,'1111122,1111122,1111122' 
DISL,ioos:station:DISL:MHPA:1,2017-12-04T01:30:00Z,30.6671,-87.9365,8.5,0.82,356.5,-9999.0,'1111122,1111122,1111122' 
DISL,ioos:station:DISL:MHPA:1,2017-12-04T02:00:00Z,30.6671,-87.9365,8.5,0.55,349.3,-9999.0,'1111122,1111122,1111122' 
DISL,ioos:station:DISL:MHPA:1,2017-12-04T03:30:00Z,30.6671,-87.9365,8.5,1.92,37.74,-9999.0,'1111122,1111122,1111122' 
DISL,ioos:station:DISL:MHPA:1,2017-12-04T04:30:00Z,30.6671,-87.9365,8.5,0.58,29.78,-9999.0,'1111122,1111122,1111122' 
DISL,ioos:station:DISL:MHPA:1,2017-12-04T05:30:00Z,30.6671,-87.9365,8.5,1.2,56.66,-9999.0,'1111122,1111122,1111122' 
DISL,ioos:station:DISL:MHPA:1,2017-12-04T06:30:00Z,30.6671,-87.9365,8.5,1.05,81.9,-9999.0,'1111122,1111122,1111122' 
DISL,ioos:station:DISL:MHPA:1,2017-12-04T07:30:00Z,30.6671,-87.9365,8.5,3.2,87.7,-9999.0,'1111122,1111122,1111122' 
DISL,ioos:station:DISL:MHPA:1,2017-12-04T08:30:00Z,30.6671,-87.9365,8.5,2.28,73.65,-9999.0,'1111122,1111122,1111122' 
DISL,ioos:station:DISL:MHPA:1,2017-12-04T09:30:00Z,30.6671,-87.9365,8.5,2.63,95.1,-9999.0,'1111122,1111122,1111122' 
DISL,ioos:station:DISL:MHPA:1,2017-12-04T10:30:00Z,30.6671,-87.9365,8.5,3.1,79.84,-9999.0,'1111122,1111122,1111122' 
DISL,ioos:station:DISL:MHPA:1,2017-12-04T11:30:00Z,30.6671,-87.9365,8.5,2.63,98.4,-9999.0,'1111122,1111122,1111122' 
DISL,ioos:station:DISL:MHPA:1,2017-12-04T12:30:00Z,30.6671,-87.9365,8.5,1.99,75.97,-9999.0,'1111122,1111122,1111122' 
DISL,ioos:station:DISL:MHPA:1,2017-12-04T13:30:00Z,30.6671,-87.9365,8.5,3.45,87.7,-9999.0,'1111122,1111122,1111122' 
DISL,ioos:station:DISL:MHPA:1,2017-12-04T14:30:00Z,30.6671,-87.9365,8.5,2.79,82.5,-9999.0,'1111122,1111122,1111122' 
DISL,ioos:station:DISL:MHPA:1,2017-12-04T15:30:00Z,30.6671,-87.9365,8.5,,,-9999.0,'1111122,1111122,1111122' 
DISL,ioos:station:DISL:MHPA:1,2017-12-04T16:30:00Z,30.6671,-87.9365,8.5,3.1,106.8,-9999.0,'1111122,1111122,1111122' 
DISL,ioos:station:DISL:MHPA:1,2017-12-04T17:30:00Z,30.6671,-87.9365,8.5,3.55,103.3,-9999.0,'1111122,1111122,1111122' 
DISL,ioos:station:DISL:MHPA:1,2017-12-04T18:30:00Z,30.6671,-87.9365,8.5,4.04,106.3,-9999.0,'1111122,1111122,1111122' 
DISL,ioos:station:DISL:MHPA:1,2017-12-04T19:30:00Z,30.6671,-87.9365,8.5,3.0,109.9,-9999.0,'1111122,1111122,1111122' 
DISL,ioos:station:DISL:MHPA:1,2017-12-04T20:30:00Z,30.6671,-87.9365,8.5,4.11,124.3,-9999.0,'1111122,1111122,1111122' 
DISL,ioos:station:DISL:MHPA:1,2017-12-04T21:30:00Z,30.6671,-87.9365,8.5,4.82,119.8,-9999.0,'1111122,1111122,1111122' 
DISL,ioos:station:DISL:MHPA:1,2017-12-04T22:30:00Z,30.6671,-87.9365,8.5,4.73,112.7,-9999.0,'1111122,1111122,1111122' 
DISL,ioos:station:DISL:MHPA:1,2017-12-04T23:30:00Z,30.6671,-87.9365,8.5,3.01,96.2,-9999.0,'1111122,1111122,1111122' 
DISL,ioos:station:DISL:MHPA:1,2017-12-05T00:30:00Z,30.6671,-87.9365,8.5,3.63,97.9,-9999.0,'1111122,1111122,1111122' 
DISL,ioos:station:DISL:MHPA:1,2017-12-05T01:30:00Z,30.6671,-87.9365,8.5,3.86,105.5,-9999.0,'1111122,1111122,1111122' 
DISL,ioos:station:DISL:MHPA:1,2017-12-05T02:30:00Z,30.6671,-87.9365,8.5,3.53,99.3,-9999.0,'1111122,1111122,1111122' 
DISL,ioos:station:DISL:MHPA:1,2017-12-05T03:30:00Z,30.6671,-87.9365,8.5,3.27,94.3,-9999.0,'1111122,1111122,1111122' 
DISL,ioos:station:DISL:MHPA:1,2017-12-05T04:30:00Z,30.6671,-87.9365,8.5,3.06,104.0,-9999.0,'1111122,1111122,1111122' 
DISL,ioos:station:DISL:MHPA:1,2017-12-05T05:30:00Z,30.6671,-87.9365,8.5,3.07,104.9,-9999.0,'1111122,1111122,1111122' 
DISL,ioos:station:DISL:MHPA:1,2017-12-05T06:30:00Z,30.6671,-87.9365,8.5,2.83,92.7,-9999.0,'1111122,1111122,1111122' 
DISL,ioos:station:DISL:MHPA:1,2017-12-05T07:30:00Z,30.6671,-87.9365,8.5,2.14,107.1,-9999.0,'1111122,1111122,1111122' 
DISL,ioos:station:DISL:MHPA:1,2017-12-05T08:30:00Z,30.6671,-87.9365,8.5,3.1,108.6,-9999.0,'1111122,1111122,1111122' 
DISL,ioos:station:DISL:MHPA:1,2017-12-05T09:30:00Z,30.6671,-87.9365,8.5,2.83,115.7,-9999.0,'1111122,1111122,1111122' 
DISL,ioos:station:DISL:MHPA:1,2017-12-05T10:30:00Z,30.6671,-87.9365,8.5,2.24,109.2,-9999.0,'1111122,1111122,1111122' 
DISL,ioos:station:DISL:MHPA:1,2017-12-05T11:30:00Z,30.6671,-87.9365,8.5,3.59,136.3,-9999.0,'1111122,1111122,1111122' 
DISL,ioos:station:DISL:MHPA:1,2017-12-05T12:30:00Z,30.6671,-87.9365,8.5,3.52,134.0,-9999.0,'1111122,1111122,1111122' 
DISL,ioos:station:DISL:MHPA:1,2017-12-05T13:30:00Z,30.6671,-87.9365,8.5,4.06,131.0,-9999.0,'1111122,1111122,1111122' 
DISL,ioos:station:DISL:MHPA:1,2017-12-05T14:30:00Z,30.6671,-87.9365,8.5,4.34,143.6,-9999.0,'1111122,1111122,1111122' 
DISL,ioos:station:DISL:MHPA:1,2017-12-05T15:30:00Z,30.6671,-87.9365,8.5,5.31,148.9,-9999.0,'1111122,1111122,1111122' 
DISL,ioos:station:DISL:MHPA:1,2017-12-05T16:30:00Z,30.6671,-87.9365,8.5,5.04,165.5,-9999.0,'1111122,1111122,1111122' 
DISL,ioos:station:DISL:MHPA:1,2017-12-05T17:30:00Z,30.6671,-87.9365,8.5,6.91,168.4,-9999.0,'1111122,1111122,1111122' 
DISL,ioos:station:DISL:MHPA:1,2017-12-05T18:30:00Z,30.6671,-87.9365,8.5,5.92,175.3,-9999.0,'1111122,1111122,1111122' 
DISL,ioos:station:DISL:MHPA:1,2017-12-05T19:30:00Z,30.6671,-87.9365,8.5,4.4,174.6,-9999.0,'1111122,1111122,1111122' 
DISL,ioos:station:DISL:MHPA:1,2017-12-05T20:30:00Z,30.6671,-87.9365,8.5,5.33,164.5,-9999.0,'1111122,1111122,1111122' 
DISL,ioos:station:DISL:MHPA:1,2017-12-05T21:30:00Z,30.6671,-87.9365,8.5,4.19,165.3,-9999.0,'1111122,1111122,1111122' 
DISL,ioos:station:DISL:MHPA:1,2017-12-05T22:30:00Z,30.6671,-87.9365,8.5,3.49,164.6,-9999.0,'1111122,1111122,1111122' 
DISL,ioos:station:DISL:MHPA:1,2017-12-05T23:30:00Z,30.6671,-87.9365,8.5,3.99,170.1,-9999.0,'1111122,1111122,1111122' 
DISL,ioos:station:DISL:MHPA:1,2017-12-06T00:30:00Z,30.6671,-87.9365,8.5,5.06,295.7,-9999.0,'1111122,1111122,1111122' 
DISL,ioos:station:DISL:MHPA:1,2017-12-06T01:30:00Z,30.6671,-87.9365,8.5,1.69,333.5,-9999.0,'1111122,1111122,1111122' 
DISL,ioos:station:DISL:MHPA:1,2017-12-06T02:30:00Z,30.6671,-87.9365,8.5,3.16,328.8,-9999.0,'1111122,1111122,1111122' 
DISL,ioos:station:DISL:MHPA:1,2017-12-06T03:30:00Z,30.6671,-87.9365,8.5,3.96,357.3,-9999.0,'1111122,1111122,1111122' 
DISL,ioos:station:DISL:MHPA:1,2017-12-06T04:30:00Z,30.6671,-87.9365,8.5,,,-9999.0,'1111122,1111122,1111122' 
DISL,ioos:station:DISL:MHPA:1,2017-12-06T05:30:00Z,30.6671,-87.9365,8.5,5.27,338.1,-9999.0,'1111122,1111122,1111122' 
DISL,ioos:station:DISL:MHPA:1,2017-12-06T06:30:00Z,30.6671,-87.9365,8.5,4.76,347.6,-9999.0,'1111122,1111122,1111122' 
DISL,ioos:station:DISL:MHPA:1,2017-12-06T07:30:00Z,30.6671,-87.9365,8.5,5.12,339.7,-9999.0,'1111122,1111122,1111122' 
DISL,ioos:station:DISL:MHPA:1,2017-12-06T08:30:00Z,30.6671,-87.9365,8.5,5.33,332.5,-9999.0,'1111122,1111122,1111122' 
DISL,ioos:station:DISL:MHPA:1,2017-12-06T09:30:00Z,30.6671,-87.9365,8.5,3.46,6.248,-9999.0,'1111122,1111122,1111122' 
DISL,ioos:station:DISL:MHPA:1,2017-12-06T10:30:00Z,30.6671,-87.9365,8.5,3.4,348.3,-9999.0,'1111122,1111122,1111122' 
DISL,ioos:station:DISL:MHPA:1,2017-12-06T11:30:00Z,30.6671,-87.9365,8.5,4.3,2.097,-9999.0,'1111122,1111122,1111122' 
DISL,ioos:station:DISL:MHPA:1,2017-12-06T12:30:00Z,30.6671,-87.9365,8.5,4.25,356.9,-9999.0,'1111122,1111122,1111122' 
DISL,ioos:station:DISL:MHPA:1,2017-12-06T13:30:00Z,30.6671,-87.9365,8.5,6.46,334.2,-9999.0,'1111122,1111122,1111122' 
DISL,ioos:station:DISL:MHPA:1,2017-12-06T14:30:00Z,30.6671,-87.9365,8.5,5.37,7.938,-9999.0,'1111122,1111122,1111122' 
DISL,ioos:station:DISL:MHPA:1,2017-12-06T15:30:00Z,30.6671,-87.9365,8.5,4.44,350.4,-9999.0,'1111122,1111122,1111122' 
DISL,ioos:station:DISL:MHPA:1,2017-12-06T16:30:00Z,30.6671,-87.9365,8.5,5.2,355.5,-9999.0,'1111122,1111122,1111122' 
DISL,ioos:station:DISL:MHPA:1,2017-12-06T17:30:00Z,30.6671,-87.9365,8.5,4.38,343.5,-9999.0,'1111122,1111122,1111122' 
DISL,ioos:station:DISL:MHPA:1,2017-12-06T18:30:00Z,30.6671,-87.9365,8.5,3.81,2.827,-9999.0,'1111122,1111122,1111122' 
DISL,ioos:station:DISL:MHPA:1,2017-12-06T19:30:00Z,30.6671,-87.9365,8.5,2.47,16.02,-9999.0,'1111122,1111122,1111122' 
DISL,ioos:station:DISL:MHPA:1,2017-12-06T20:30:00Z,30.6671,-87.9365,8.5,4.63,17.63,-9999.0,'1111122,1111122,1111122' 
DISL,ioos:station:DISL:MHPA:1,2017-12-06T21:30:00Z,30.6671,-87.9365,8.5,3.94,0.946,-9999.0,'1111122,1111122,1111122' 
DISL,ioos:station:DISL:MHPA:1,2017-12-06T22:30:00Z,30.6671,-87.9365,8.5,,,-9999.0,'1111122,1111122,1111122' 
DISL,ioos:station:DISL:MHPA:1,2017-12-06T23:30:00Z,30.6671,-87.9365,8.5,3.7,351.4,-9999.0,'1111122,1111122,1111122' 
DISL,ioos:station:DISL:MHPA:1,2017-12-07T00:30:00Z,30.6671,-87.9365,8.5,3.28,2.261,-9999.0,'1111122,1111122,1111122' 
DISL,ioos:station:DISL:MHPA:1,2017-12-07T01:30:00Z,30.6671,-87.9365,8.5,5.04,0.631,-9999.0,'1111122,1111122,1111122' 
DISL,ioos:station:DISL:MHPA:1,2017-12-07T02:30:00Z,30.6671,-87.9365,8.5,3.51,2.938,-9999.0,'1111122,1111122,1111122' 
DISL,ioos:station:DISL:MHPA:1,2017-12-07T03:30:00Z,30.6671,-87.9365,8.5,3.53,7.776,-9999.0,'1111122,1111122,1111122' 
DISL,ioos:station:DISL:MHPA:1,2017-12-07T04:30:00Z,30.6671,-87.9365,8.5,3.4,17.89,-9999.0,'1111122,1111122,1111122' 
DISL,ioos:station:DISL:MHPA:1,2017-12-07T05:30:00Z,30.6671,-87.9365,8.5,2.86,353.5,-9999.0,'1111122,1111122,1111122' 
DISL,ioos:station:DISL:MHPA:1,2017-12-07T06:30:00Z,30.6671,-87.9365,8.5,3.03,346.2,-9999.0,'1111122,1111122,1111122' 
DISL,ioos:station:DISL:MHPA:1,2017-12-07T07:30:00Z,30.6671,-87.9365,8.5,3.33,357.7,-9999.0,'1111122,1111122,1111122' 
DISL,ioos:station:DISL:MHPA:1,2017-12-07T08:30:00Z,30.6671,-87.9365,8.5,3.72,350.7,-9999.0,'1111122,1111122,1111122' 
DISL,ioos:station:DISL:MHPA:1,2017-12-07T09:30:00Z,30.6671,-87.9365,8.5,3.61,0.482,-9999.0,'1111122,1111122,1111122' 
DISL,ioos:station:DISL:MHPA:1,2017-12-07T10:30:00Z,30.6671,-87.9365,8.5,2.78,357.6,-9999.0,'1111122,1111122,1111122' 
DISL,ioos:station:DISL:MHPA:1,2017-12-07T11:30:00Z,30.6671,-87.9365,8.5,3.05,0.593,-9999.0,'1111122,1111122,1111122' 
DISL,ioos:station:DISL:MHPA:1,2017-12-07T12:30:00Z,30.6671,-87.9365,8.5,3.17,6.067,-9999.0,'1111122,1111122,1111122' 
DISL,ioos:station:DISL:MHPA:1,2017-12-07T13:30:00Z,30.6671,-87.9365,8.5,2.92,7.511,-9999.0,'1111122,1111122,1111122' 
DISL,ioos:station:DISL:MHPA:1,2017-12-07T14:30:00Z,30.6671,-87.9365,8.5,3.38,4.261,-9999.0,'1111122,1111122,1111122' 
DISL,ioos:station:DISL:MHPA:1,2017-12-07T15:30:00Z,30.6671,-87.9365,8.5,2.7,355.1,-9999.0,'1111122,1111122,1111122' 
DISL,ioos:station:DISL:MHPA:1,2017-12-07T16:30:00Z,30.6671,-87.9365,8.5,3.18,0.304,-9999.0,'1111122,1111122,1111122' 
DISL,ioos:station:DISL:MHPA:1,2017-12-07T17:30:00Z,30.6671,-87.9365,8.5,3.08,348.4,-9999.0,'1111122,1111122,1111122' 
DISL,ioos:station:DISL:MHPA:1,2017-12-07T18:30:00Z,30.6671,-87.9365,8.5,3.84,342.1,-9999.0,'1111122,1111122,1111122' 
DISL,ioos:station:DISL:MHPA:1,2017-12-07T19:30:00Z,30.6671,-87.9365,8.5,2.66,13.13,-9999.0,'1111122,1111122,1111122' 
DISL,ioos:station:DISL:MHPA:1,2017-12-07T20:00:00Z,30.6671,-87.9365,8.5,3.37,345.7,-9999.0,'1111122,1111122,1111122' 
DISL,ioos:station:DISL:MHPA:1,2017-12-07T22:30:00Z,30.6671,-87.9365,8.5,3.86,0.104,-9999.0,'1111122,1111122,1111122' 
DISL,ioos:station:DISL:MHPA:1,2017-12-07T23:30:00Z,30.6671,-87.9365,8.5,3.47,349.7,-9999.0,'1111122,1111122,1111122' 
DISL,ioos:station:DISL:MHPA:1,2017-12-08T00:30:00Z,30.6671,-87.9365,8.5,2.95,13.27,-9999.0,'1111122,1111122,1111122' 
DISL,ioos:station:DISL:MHPA:1,2017-12-08T01:30:00Z,30.6671,-87.9365,8.5,4.17,1.272,-9999.0,'1111122,1111122,1111122' 
DISL,ioos:station:DISL:MHPA:1,2017-12-08T02:30:00Z,30.6671,-87.9365,8.5,3.77,4.266,-9999.0,'1111122,1111122,1111122' 
DISL,ioos:station:DISL:MHPA:1,2017-12-08T03:30:00Z,30.6671,-87.9365,8.5,3.21,5.249,-9999.0,'1111122,1111122,1111122' 
DISL,ioos:station:DISL:MHPA:1,2017-12-08T04:30:00Z,30.6671,-87.9365,8.5,3.71,9.12,-9999.0,'1111122,1111122,1111122' 
DISL,ioos:station:DISL:MHPA:1,2017-12-08T05:30:00Z,30.6671,-87.9365,8.5,3.32,3.321,-9999.0,'1111122,1111122,1111122' 
DISL,ioos:station:DISL:MHPA:1,2017-12-08T06:30:00Z,30.6671,-87.9365,8.5,3.47,0.864,-9999.0,'1111122,1111122,1111122' 
DISL,ioos:station:DISL:MHPA:1,2017-12-08T07:30:00Z,30.6671,-87.9365,8.5,4.7,1.942,-9999.0,'1111122,1111122,1111122' 
DISL,ioos:station:DISL:MHPA:1,2017-12-08T08:30:00Z,30.6671,-87.9365,8.5,3.97,355.5,-9999.0,'1111122,1111122,1111122' 
DISL,ioos:station:DISL:MHPA:1,2017-12-08T09:30:00Z,30.6671,-87.9365,8.5,4.47,359.7,-9999.0,'1111122,1111122,1111122' 
DISL,ioos:station:DISL:MHPA:1,2017-12-08T10:30:00Z,30.6671,-87.9365,8.5,4.38,7.486,-9999.0,'1111122,1111122,1111122' 
DISL,ioos:station:DISL:MHPA:1,2017-12-08T11:30:00Z,30.6671,-87.9365,8.5,4.29,0.441,-9999.0,'1111122,1111122,1111122' 
DISL,ioos:station:DISL:MHPA:1,2017-12-08T12:30:00Z,30.6671,-87.9365,8.5,5.82,358.2,-9999.0,'1111122,1111122,1111122' 
DISL,ioos:station:DISL:MHPA:1,2017-12-08T13:30:00Z,30.6671,-87.9365,8.5,5.53,342.8,-9999.0,'1111122,1111122,1111122' 
DISL,ioos:station:DISL:MHPA:1,2017-12-08T14:30:00Z,30.6671,-87.9365,8.5,4.87,336.5,-9999.0,'1111122,1111122,1111122' 
DISL,ioos:station:DISL:MHPA:1,2017-12-08T15:30:00Z,30.6671,-87.9365,8.5,4.44,1.165,-9999.0,'1111122,1111122,1111122' 
DISL,ioos:station:DISL:MHPA:1,2017-12-08T16:30:00Z,30.6671,-87.9365,8.5,5.01,352.6,-9999.0,'1111122,1111122,1111122' 
DISL,ioos:station:DISL:MHPA:1,2017-12-08T17:30:00Z,30.6671,-87.9365,8.5,4.54,0.873,-9999.0,'1111122,1111122,1111122' 
DISL,ioos:station:DISL:MHPA:1,2017-12-08T18:30:00Z,30.6671,-87.9365,8.5,5.07,349.2,-9999.0,'1111122,1111122,1111122' 
DISL,ioos:station:DISL:MHPA:1,2017-12-08T19:30:00Z,30.6671,-87.9365,8.5,5.32,331.6,-9999.0,'1111122,1111122,1111122' 
DISL,ioos:station:DISL:MHPA:1,2017-12-08T20:30:00Z,30.6671,-87.9365,8.5,4.56,356.8,-9999.0,'1111122,1111122,1111122' 
DISL,ioos:station:DISL:MHPA:1,2017-12-08T21:30:00Z,30.6671,-87.9365,8.5,5.36,330.2,-9999.0,'1111122,1111122,1111122' 
DISL,ioos:station:DISL:MHPA:1,2017-12-08T22:30:00Z,30.6671,-87.9365,8.5,4.44,339.2,-9999.0,'1111122,1111122,1111122' 
DISL,ioos:station:DISL:MHPA:1,2017-12-08T23:30:00Z,30.6671,-87.9365,8.5,4.34,338.8,-9999.0,'1111122,1111122,1111122' 
DISL,ioos:station:DISL:MHPA:1,2017-12-09T00:30:00Z,30.6671,-87.9365,8.5,3.82,350.6,-9999.0,'1111122,1111122,1111122' 
DISL,ioos:station:DISL:MHPA:1,2017-12-09T01:30:00Z,30.6671,-87.9365,8.5,5.25,327.0,-9999.0,'1111122,1111122,1111122' 
DISL,ioos:station:DISL:MHPA:1,2017-12-09T02:30:00Z,30.6671,-87.9365,8.5,5.18,323.7,-9999.0,'1111122,1111122,1111122' 
DISL,ioos:station:DISL:MHPA:1,2017-12-09T03:30:00Z,30.6671,-87.9365,8.5,3.74,332.5,-9999.0,'1111122,1111122,1111122' 
DISL,ioos:station:DISL:MHPA:1,2017-12-09T04:30:00Z,30.6671,-87.9365,8.5,4.35,331.1,-9999.0,'1111122,1111122,1111122' 
DISL,ioos:station:DISL:MHPA:1,2017-12-09T05:30:00Z,30.6671,-87.9365,8.5,4.13,328.7,-9999.0,'1111122,1111122,1111122' 
DISL,ioos:station:DISL:MHPA:1,2017-12-09T06:30:00Z,30.6671,-87.9365,8.5,3.89,332.2,-9999.0,'1111122,1111122,1111122' 
DISL,ioos:station:DISL:MHPA:1,2017-12-09T07:30:00Z,30.6671,-87.9365,8.5,2.84,323.0,-9999.0,'1111122,1111122,1111122' 
DISL,ioos:station:DISL:MHPA:1,2017-12-09T08:30:00Z,30.6671,-87.9365,8.5,5.9,301.3,-9999.0,'1111122,1111122,1111122' 
DISL,ioos:station:DISL:MHPA:1,2017-12-09T09:30:00Z,30.6671,-87.9365,8.5,6.34,303.7,-9999.0,'1111122,1111122,1111122' 
DISL,ioos:station:DISL:MHPA:1,2017-12-09T10:30:00Z,30.6671,-87.9365,8.5,5.03,308.8,-9999.0,'1111122,1111122,1111122' 
DISL,ioos:station:DISL:MHPA:1,2017-12-09T11:30:00Z,30.6671,-87.9365,8.5,5.61,300.6,-9999.0,'1111122,1111122,1111122' 